Weather History for Lancaster, CA

Change the Weather History Date:

Thursday, February 21, 2013

  Actual Average Record
Temperature  
Mean Temperature 44 °F 49 °F  
Max Temperature 55 °F 63 °F 77 °F (1965)
Min Temperature 32 °F 36 °F 13 °F (1953)
Degree Days  
Heating Degree Days 21    
Month to date heating degree days 402  
Since 1 July heating degree days 2234  
Cooling Degree Days 0    
Month to date cooling degree days 0  
Year to date cooling degree days 0  
Moisture  
Dew Point 23 °F    
Average Humidity 42    
Maximum Humidity 64    
Minimum Humidity 19    
Precipitation  
Precipitation 0.00 in 0.07 in 0.58 in (1996)
Month to date precipitation 0.20 1.37  
Year to date precipitation 0.60 2.87  
Since 1 July precipitation 0.76 5.34  
Snow  
Snow 0.00 in - 0.00 in ()
Month to date snowfall 0.0  
Since 1 July snowfall 0.0  
Snow Depth 0.00 in    
Sea Level Pressure  
Sea Level Pressure 30.04 in    
Wind  
Wind Speed 11 mph (WNW)    
Max Wind Speed 30 mph    
Max Gust Speed 38 mph    
Visibility 10 miles    
Events      
T = Trace of Precipitation, MM = Missing Value Source: NWS Daily Summary

Daily Weather History Graph

Daily Weather History Graph

Search for Another Location

Airport:

Trip Planner

Search our weather history database for the weather conditions in past years. The results will help you decide how hot, cold, wet, or windy it might be!

Date:

Astronomy

Feb. 21, 2013 Rise Set
Actual Time 6:31 AM PST 5:41 PM PST
Civil Twilight 6:05 AM PST 6:07 PM PST
Nautical Twilight 5:36 AM PST 6:36 PM PST
Astronomical Twilight 5:07 AM PST 7:06 PM PST
Moon 2:07 PM PST (2/21) 3:33 AM PST (2/21)
Length of Visible Light 12h 01m
Length of Day
11h 10m
Waxing Gibbous, 84% of the Moon is Illuminated
Feb 21
Waxing Gibbous
Feb 25
Full
Mar 4
Last Quarter
Mar 11
New
Mar 19
First Quarter

Hourly Weather History & Observations

Time (PST) Temp. Windchill Dew Point Humidity Pressure Visibility Wind Dir Wind Speed Gust Speed Precip Events Conditions
12:56 AM 39.9 °F 29.2 °F 26.1 °F 58% 29.97 in 10.0 mi WNW 25.3 mph 35.7 mph N/A   Clear
1:56 AM 39.9 °F 29.2 °F 26.1 °F 58% 29.97 in 10.0 mi WNW 25.3 mph 33.4 mph N/A   Clear
2:56 AM 37.9 °F 30.0 °F 26.1 °F 62% 29.98 in 10.0 mi West 12.7 mph - N/A   Clear
3:56 AM 37.9 °F 30.9 °F 25.0 °F 60% 29.99 in 10.0 mi West 10.4 mph - N/A   Clear
4:56 AM 37.9 °F 30.5 °F 26.1 °F 62% 29.99 in 10.0 mi West 11.5 mph - N/A   Clear
5:56 AM 37.9 °F 32.1 °F 25.0 °F 60% 29.99 in 10.0 mi West 8.1 mph - N/A   Clear
6:56 AM 37.9 °F 30.5 °F 25.0 °F 60% 30.00 in 10.0 mi West 11.5 mph - N/A   Clear
7:56 AM 43.0 °F 35.1 °F 25.0 °F 49% 30.02 in 10.0 mi West 17.3 mph - N/A   Clear
8:56 AM 46.0 °F 39.9 °F 25.0 °F 44% 30.05 in 10.0 mi WNW 13.8 mph 21.9 mph N/A   Clear
9:56 AM 48.0 °F - 24.1 °F 39% 30.04 in 10.0 mi NE 8.1 mph - N/A   Clear
10:56 AM 50.0 °F - 24.1 °F 36% 30.04 in 10.0 mi NNW 8.1 mph - N/A   Clear
11:56 AM 52.0 °F - 19.9 °F 28% 30.03 in - NNE 6.9 mph 17.3 mph N/A   Clear
12:56 PM 53.1 °F - 12.9 °F 20% 30.01 in - ENE 18.4 mph 24.2 mph N/A   Clear
1:56 PM 53.1 °F - 17.1 °F 24% 30.02 in - NE 9.2 mph 17.3 mph N/A   Clear
2:56 PM 54.0 °F - 15.1 °F 22% 30.01 in - East 5.8 mph - N/A   Clear
3:56 PM 54.0 °F - 14.0 °F 21% 30.00 in - ENE 8.1 mph - N/A   Clear
4:56 PM 53.1 °F - 19.0 °F 26% 30.01 in - NNW 6.9 mph - N/A   Clear
5:56 PM 46.9 °F - 25.0 °F 42% 30.04 in - North 10.4 mph - N/A   Clear
6:56 PM 43.0 °F 38.2 °F 27.0 °F 53% 30.09 in - WSW 8.1 mph - N/A   Clear
7:56 PM 41.0 °F 34.3 °F 28.0 °F 60% 30.11 in - West 11.5 mph - N/A   Clear
8:56 PM 41.0 °F 35.2 °F 28.0 °F 60% 30.11 in - West 9.2 mph - N/A   Clear
9:56 PM 37.9 °F 32.7 °F 27.0 °F 65% 30.12 in 10.0 mi West 6.9 mph - N/A   Clear
10:56 PM 37.0 °F 34.5 °F 26.1 °F 65% 30.13 in 10.0 mi WSW 3.5 mph - N/A   Clear
11:56 PM 33.1 °F - 24.1 °F 70% 30.14 in 10.0 mi Calm Calm - N/A   Clear